Wind_Speed
46 44 43 42 41 43 47 47 47 41 41 39 34 32 30 30 27 26 29 28 28 30 33 32 32 32 32 33 33 33 34 35 35 37 38 38 39 40 41 43 44 47 49 52
49 45 45 46 43 42 45 45 44 42 42 39 38 36 30 25 26 30 31 28 29 32 33 32 32 33 33 34 34 34 35 36 37 38 39 40 40 41 43 44 46 49 52 55
46 44 46 48 45 44 46 45 42 44 40 37 35 28 24 25 28 30 26 26 30 32 32 31 32 32 32 34 34 35 36 37 37 38 40 41 41 43 45 47 48 51 54 57
44 44 48 41 40 42 42 38 40 41 39 35 31 27 26 23 26 26 25 27 29 27 27 28 30 31 32 33 34 35 36 37 38 39 40 41 43 44 47 49 52 54 57 59
47 44 43 43 40 42 45 41 40 39 36 35 31 27 24 24 24 25 25 23 21 22 23 26 29 31 32 33 33 34 35 37 39 40 41 42 43 46 48 50 53 56 58 60
47 45 46 38 34 35 36 39 40 39 33 31 28 25 21 22 22 21 19 19 19 20 23 25 28 29 31 32 33 35 36 38 39 40 42 44 45 47 50 53 55 57 59 62
49 47 45 38 35 38 43 36 36 34 32 29 23 20 24 20 20 20 19 20 20 23 25 27 29 30 31 33 34 36 36 38 39 40 43 45 46 48 51 54 57 58 60 62
51 49 47 40 41 43 31 28 30 30 29 29 26 24 22 22 19 20 21 23 23 25 25 28 29 30 31 33 34 34 37 38 40 43 44 46 48 50 53 56 57 57 59 62
50 43 39 37 35 34 32 33 33 33 32 29 29 27 25 24 22 22 23 24 26 28 28 28 29 30 32 32 33 35 37 40 43 44 45 47 49 52 54 56 58 58 60 62
53 48 39 37 32 35 35 38 36 36 34 31 29 28 27 27 26 24 26 26 26 28 28 29 30 32 32 32 34 36 38 40 42 44 46 49 51 54 56 57 58 59 62 64
56 48 42 41 41 40 35 40 43 40 35 32 31 30 30 30 28 27 28 27 27 29 30 30 30 32 33 34 35 37 39 40 42 44 47 50 53 55 57 59 61 62 64 65
56 45 42 38 37 37 36 36 40 39 37 36 35 34 34 32 30 29 31 29 29 30 30 31 31 32 33 35 37 39 41 42 43 44 47 49 52 56 58 59 60 62 64 64
53 46 42 36 38 38 37 39 39 38 39 39 38 36 36 34 33 31 33 31 31 31 31 33 34 36 36 37 39 41 42 43 43 44 46 49 52 53 55 57 60 62 63 64
55 51 48 47 44 41 40 40 41 41 42 40 38 38 37 36 34 33 33 32 32 32 34 35 37 38 40 40 41 43 43 43 43 45 47 49 53 55 56 56 57 60 62 64
57 52 47 44 43 42 41 41 41 40 39 38 38 39 38 37 35 35 34 34 34 35 36 37 39 40 42 42 43 44 43 43 44 46 48 50 52 54 56 57 58 58 60 63
58 56 51 49 47 45 42 40 40 40 39 38 39 39 37 38 37 37 36 35 35 37 38 39 39 41 43 43 45 44 44 44 45 46 48 50 52 54 55 57 57 57 58 60
61 59 56 52 49 44 41 39 39 39 39 40 40 40 39 38 37 37 36 36 37 39 39 40 40 43 44 45 45 45 45 45 45 47 48 49 51 53 54 56 56 57 57 60
61 58 54 49 45 43 43 43 42 41 40 38 40 40 39 38 37 38 37 38 39 40 41 40 42 44 45 46 46 46 46 46 47 47 48 49 50 52 54 55 55 56 58 60
62 59 56 54 52 49 48 46 43 43 41 41 41 39 38 39 39 38 38 40 40 41 41 42 43 44 45 46 46 46 46 46 47 47 48 49 50 52 54 55 54 55 57 59
60 55 54 53 51 49 48 46 44 42 42 42 43 42 41 39 39 40 40 40 42 43 43 43 44 45 47 47 46 47 46 46 46 47 48 49 50 52 53 53 53 54 57 57
61 59 54 50 49 50 49 47 45 44 43 43 43 42 41 42 43 40 40 43 45 44 44 44 45 46 47 46 46 46 46 46 46 47 48 49 50 51 52 52 52 54 56 54
53 58 57 55 53 50 49 46 45 45 44 44 44 43 43 42 39 41 47 48 45 45 44 44 46 46 46 46 46 46 46 45 46 47 47 48 49 50 50 51 52 54 53 49
50 51 56 56 53 52 51 48 44 43 43 44 43 43 43 41 46 51 49 47 46 45 43 45 46 46 45 45 45 45 45 45 46 46 47 47 47 48 49 51 52 53 50 45
46 51 50 54 57 56 54 51 51 49 45 44 44 45 49 51 50 51 47 46 45 43 44 45 46 45 45 44 44 44 44 44 45 46 46 46 47 48 49 50 52 51 47 42
49 47 49 50 50 50 49 50 51 51 50 50 51 51 51 51 47 47 48 45 43 43 45 45 45 44 43 42 42 42 43 44 44 45 45 46 46 47 48 50 51 50 46 41
52 50 48 48 48 47 46 47 47 48 49 50 49 48 48 48 48 47 44 42 43 44 45 44 43 41 41 41 40 41 43 43 44 45 45 46 46 46 48 50 50 47 43 40
48 48 48 46 45 44 45 47 48 49 49 48 49 49 48 47 46 43 43 42 43 44 43 42 40 38 38 39 40 41 42 42 43 45 46 46 46 47 49 49 48 45 42 40
Wind_Direction
227 227 225 228 229 232 233 233 234 242 248 251 252 251 250 250 253 258 259 264 272 275 274 277 279 283 285 288 291 293 295 298 301 302 303 303 305 305 305 305 307 309 312 313
231 227 229 228 230 230 229 232 233 233 235 237 238 239 242 250 254 257 264 270 273 272 274 275 279 281 284 287 290 291 294 297 299 301 303 304 306 306 306 307 309 312 315 316
229 229 228 230 225 228 230 229 227 230 234 237 241 245 246 251 258 264 277 277 272 272 275 278 280 282 286 288 289 291 294 296 298 300 302 304 306 307 309 311 313 315 317 317
225 225 228 219 222 224 227 227 230 230 227 230 236 238 245 251 257 266 267 264 267 277 279 281 284 286 287 288 290 293 294 296 299 300 303 306 308 310 313 315 316 318 319 320
223 223 223 221 216 221 223 220 216 223 221 225 229 235 237 239 245 247 254 265 274 279 284 284 285 285 287 289 293 293 296 298 300 303 305 308 309 311 314 317 318 320 320 323
221 222 220 215 216 220 217 218 216 221 220 223 228 233 233 239 244 255 266 271 280 286 287 290 291 293 293 293 294 296 296 299 302 304 307 308 309 313 316 319 320 322 324 328
221 222 220 215 209 214 215 213 214 216 222 226 226 225 232 239 249 258 267 279 289 296 299 301 299 297 294 294 295 295 298 301 304 306 306 309 312 316 318 320 322 325 327 330
221 222 221 215 209 217 220 215 218 218 219 224 227 234 239 244 251 261 270 278 287 293 301 300 300 299 296 295 295 297 299 302 305 305 307 311 314 317 319 321 323 326 329 330
226 227 225 220 218 217 218 218 218 217 221 227 231 239 245 249 253 259 267 274 280 289 297 303 304 301 299 299 298 299 300 302 304 306 309 312 315 317 319 321 324 327 329 329
222 221 225 227 223 222 221 218 218 222 224 227 234 240 246 251 254 260 266 271 279 288 293 300 304 303 304 304 302 302 301 303 305 307 311 314 316 317 319 323 326 327 328 329
224 222 220 220 216 216 222 221 221 224 228 232 237 244 251 254 256 260 267 273 282 285 291 300 308 309 308 307 305 304 304 305 307 309 312 314 316 318 321 325 327 328 330 329
223 223 226 223 223 221 217 217 221 227 231 236 240 246 252 257 261 261 267 274 281 285 292 300 307 310 308 306 305 305 306 307 308 310 313 315 317 320 323 326 328 329 330 331
224 224 224 219 218 218 219 219 222 226 231 236 240 246 253 258 262 263 267 275 282 286 290 295 302 308 309 307 305 306 306 307 309 311 312 315 318 320 323 326 328 329 330 331
221 221 220 216 214 214 219 222 224 227 231 236 242 248 254 259 262 262 268 275 282 285 287 293 298 305 307 306 306 307 307 308 310 312 313 316 319 321 324 326 328 329 329 331
216 220 220 220 220 219 219 223 228 234 237 241 244 250 255 260 263 263 266 271 281 285 288 292 296 303 304 305 306 307 307 309 311 312 314 317 319 321 324 326 328 329 330 332
216 217 218 219 221 222 222 224 228 233 238 242 247 252 255 256 259 262 265 273 282 285 288 291 295 301 303 305 305 306 308 309 310 311 314 316 319 322 324 325 327 328 329 332
219 218 219 222 223 223 226 228 230 233 236 240 245 248 251 255 259 261 265 273 280 284 287 290 296 299 302 303 304 305 307 307 309 312 314 316 319 322 323 324 326 328 330 332
222 221 223 225 226 228 229 230 232 235 239 242 246 249 252 256 258 260 266 274 279 283 286 289 295 298 301 302 303 304 305 307 308 311 313 317 320 321 322 324 326 328 331 332
222 222 222 223 224 226 228 230 232 234 237 241 246 250 252 255 258 261 267 275 281 284 286 289 295 297 299 300 301 303 304 305 307 310 313 316 319 320 321 323 325 328 331 332
220 222 222 223 225 227 230 232 235 237 240 242 245 249 253 256 257 260 269 280 280 283 286 290 294 296 297 299 301 301 302 304 306 309 313 316 317 319 321 323 326 328 330 333
218 221 224 226 227 230 232 235 237 239 241 244 247 251 254 255 258 265 276 276 276 282 286 290 292 293 296 298 298 299 301 303 307 310 312 314 316 318 321 323 326 328 331 333
220 221 224 227 229 231 234 237 239 242 244 247 250 252 256 258 260 267 271 274 278 282 284 287 288 291 293 294 296 297 299 303 306 309 311 313 316 319 321 322 325 328 332 332
220 222 224 227 229 230 229 233 237 242 245 248 250 253 254 254 260 268 273 275 277 280 282 284 287 289 290 291 293 295 298 302 306 308 309 313 317 319 320 321 325 330 331 329
223 223 225 227 229 232 234 237 235 238 242 244 246 248 254 262 264 270 272 274 275 277 280 283 284 286 287 289 291 294 298 302 305 306 311 315 316 317 318 322 326 330 329 324
227 226 227 229 230 232 234 237 238 240 242 245 250 255 258 261 263 266 268 269 273 276 278 280 281 282 284 286 290 294 298 301 304 308 313 314 315 316 319 324 326 328 326 322
228 230 230 229 231 232 234 238 240 242 245 249 252 254 257 258 260 261 265 268 270 273 275 276 278 279 282 286 289 294 297 301 305 310 313 314 314 317 321 323 325 324 321 319
222 224 228 230 230 232 233 234 236 240 244 246 247 248 250 252 256 260 264 267 269 271 272 273 275 278 281 286 290 293 297 303 309 312 313 313 315 317 321 322 321 319 316 315
Height
5675 5683 5689 5694 5701 5707 5711 5717 5721 5729 5731 5734 5740 5743 5746 5749 5750 5751 5752 5754 5755 5754 5752 5752 5751 5749 5747 5745 5742 5740 5737 5733 5729 5726 5723 5718 5714 5709 5704 5698 5691 5685 5678 5671
5665 5672 5677 5683 5691 5697 5702 5707 5713 5719 5722 5725 5728 5733 5738 5741 5742 5743 5744 5746 5747 5745 5744 5744 5742 5740 5738 5736 5734 5731 5728 5725 5721 5717 5713 5709 5705 5700 5694 5688 5680 5673 5665 5657
5658 5663 5667 5671 5682 5688 5692 5698 5705 5708 5716 5720 5721 5727 5731 5733 5733 5733 5736 5738 5737 5736 5735 5735 5733 5731 5729 5727 5724 5721 5719 5715 5712 5708 5704 5699 5695 5690 5684 5677 5669 5661 5653 5644
5646 5652 5654 5669 5673 5679 5684 5692 5697 5701 5705 5711 5715 5718 5720 5723 5724 5728 5730 5729 5728 5728 5727 5725 5723 5721 5720 5718 5714 5712 5709 5706 5703 5699 5695 5690 5685 5679 5673 5665 5657 5649 5640 5630
5634 5641 5648 5653 5663 5668 5671 5679 5685 5691 5698 5702 5707 5711 5715 5719 5722 5723 5722 5722 5721 5719 5718 5716 5714 5712 5711 5708 5706 5703 5700 5697 5694 5690 5685 5680 5675 5669 5662 5655 5646 5637 5627 5617
5626 5630 5635 5650 5656 5662 5667 5669 5677 5682 5689 5695 5700 5705 5711 5711 5712 5713 5713 5713 5712 5712 5710 5708 5706 5704 5702 5699 5697 5695 5692 5688 5684 5680 5675 5670 5665 5659 5651 5644 5635 5624 5614 5603
5616 5622 5630 5640 5647 5650 5654 5668 5671 5677 5683 5688 5695 5701 5700 5703 5705 5706 5706 5706 5705 5703 5702 5700 5698 5696 5693 5690 5689 5686 5683 5679 5675 5670 5665 5660 5654 5648 5640 5632 5623 5613 5602 5591
5609 5614 5622 5633 5638 5642 5659 5664 5668 5673 5677 5682 5686 5691 5694 5696 5697 5698 5698 5698 5697 5696 5695 5693 5691 5688 5685 5682 5679 5676 5673 5669 5665 5660 5655 5649 5643 5636 5629 5621 5612 5603 5592 5581
5604 5612 5621 5629 5636 5643 5650 5656 5662 5667 5671 5676 5680 5683 5685 5688 5690 5691 5691 5691 5690 5689 5688 5685 5683 5680 5676 5673 5670 5667 5663 5659 5655 5650 5645 5639 5632 5626 5619 5610 5601 5592 5582 5573
5592 5601 5612 5622 5630 5636 5642 5647 5653 5658 5664 5669 5673 5676 5678 5680 5682 5684 5684 5684 5683 5682 5680 5678 5675 5671 5668 5663 5660 5657 5653 5649 5644 5639 5633 5628 5621 5614 5607 5599 5590 5581 5572 5562
5583 5594 5603 5609 5617 5622 5630 5637 5642 5648 5654 5659 5663 5667 5670 5672 5674 5676 5675 5675 5675 5673 5671 5668 5665 5661 5657 5654 5651 5647 5643 5639 5634 5628 5623 5616 5610 5603 5595 5586 5578 5568 5559 5548
5575 5590 5597 5604 5610 5615 5622 5629 5634 5640 5645 5650 5654 5658 5660 5663 5665 5666 5665 5666 5665 5663 5661 5657 5655 5652 5649 5645 5641 5638 5634 5629 5624 5618 5612 5606 5598 5589 5582 5574 5565 5555 5545 5536
5568 5579 5586 5593 5597 5605 5611 5618 5624 5630 5635 5639 5644 5648 5651 5653 5655 5655 5655 5656 5654 5653 5650 5648 5646 5643 5639 5636 5632 5628 5624 5619 5614 5608 5602 5596 5589 5582 5572 5562 5554 5544 5534 5524
5554 5564 5571 5578 5586 5594 5600 5606 5613 5618 5622 5628 5633 5637 5640 5642 5644 5644 5644 5644 5644 5643 5641 5639 5636 5633 5629 5626 5622 5618 5614 5609 5604 5598 5592 5586 5579 5571 5564 5556 5546 5535 5524 5513
5542 5555 5564 5571 5577 5583 5589 5595 5601 5607 5614 5619 5623 5626 5629 5631 5632 5632 5634 5634 5634 5632 5630 5628 5625 5623 5620 5616 5612 5608 5604 5599 5594 5588 5582 5576 5569 5561 5554 5546 5537 5528 5517 5505
5534 5542 5551 5558 5566 5573 5581 5587 5593 5598 5603 5608 5611 5614 5618 5619 5621 5622 5622 5623 5623 5621 5620 5618 5615 5613 5609 5606 5602 5598 5593 5588 5583 5578 5572 5565 5559 5552 5544 5536 5528 5519 5511 5501
5519 5530 5540 5547 5554 5564 5573 5580 5585 5589 5594 5598 5601 5605 5607 5609 5610 5611 5612 5613 5612 5610 5609 5607 5605 5601 5598 5595 5591 5587 5583 5578 5573 5567 5561 5555 5549 5542 5535 5527 5518 5510 5501 5492
5511 5522 5532 5541 5549 5555 5561 5568 5573 5578 5583 5587 5589 5593 5596 5598 5599 5599 5601 5602 5600 5599 5597 5596 5593 5590 5587 5584 5580 5576 5572 5567 5562 5556 5551 5545 5539 5532 5525 5517 5509 5500 5491 5482
5498 5510 5519 5528 5535 5542 5548 5555 5562 5567 5572 5576 5579 5582 5585 5586 5587 5588 5589 5590 5589 5588 5586 5585 5581 5578 5575 5572 5568 5565 5560 5556 5551 5546 5540 5535 5528 5522 5515 5507 5499 5492 5483 5473
5486 5498 5507 5516 5523 5530 5536 5543 5549 5555 5560 5564 5567 5571 5573 5575 5576 5576 5577 5578 5577 5576 5574 5572 5569 5567 5564 5560 5557 5553 5549 5545 5540 5535 5529 5524 5518 5511 5505 5497 5490 5482 5474 5465
5475 5485 5495 5504 5513 5520 5526 5531 5538 5544 5548 5552 5556 5558 5560 5561 5562 5564 5565 5565 5564 5564 5562 5560 5558 5554 5552 5549 5546 5542 5538 5534 5529 5524 5519 5513 5507 5501 5494 5487 5480 5473 5465 5456
5465 5473 5483 5492 5501 5509 5515 5521 5525 5530 5535 5539 5542 5545 5548 5550 5552 5552 5552 5552 5552 5551 5549 5548 5545 5542 5540 5537 5533 5530 5526 5523 5518 5514 5508 5503 5497 5491 5484 5478 5471 5464 5456 5448
5452 5462 5469 5477 5488 5496 5501 5507 5514 5519 5523 5526 5530 5533 5536 5538 5539 5539 5539 5539 5538 5537 5536 5535 5533 5530 5527 5524 5521 5518 5515 5512 5508 5503 5498 5493 5487 5481 5475 5468 5461 5454 5447 5440
5442 5450 5458 5465 5472 5481 5489 5496 5500 5505 5510 5514 5517 5520 5522 5524 5525 5526 5526 5526 5525 5524 5523 5523 5520 5518 5515 5513 5510 5507 5504 5501 5497 5492 5487 5482 5477 5471 5465 5458 5451 5444 5438 5432
5433 5438 5446 5454 5463 5471 5478 5482 5487 5492 5497 5501 5504 5507 5509 5511 5512 5511 5512 5512 5512 5511 5510 5510 5508 5506 5504 5501 5499 5496 5493 5490 5486 5481 5476 5471 5466 5460 5454 5448 5441 5435 5429 5424
5422 5430 5436 5443 5451 5458 5465 5470 5475 5478 5482 5487 5491 5494 5495 5495 5497 5498 5499 5498 5499 5498 5498 5496 5495 5493 5492 5490 5487 5485 5482 5479 5475 5470 5466 5461 5455 5449 5443 5437 5431 5425 5419 5414
5412 5418 5424 5431 5439 5446 5451 5456 5460 5465 5469 5473 5476 5477 5479 5480 5483 5484 5485 5485 5485 5485 5485 5484 5483 5482 5480 5479 5476 5474 5471 5468 5464 5459 5454 5449 5444 5438 5433 5427 5421 5415 5410 5405